Location: *
(58.7167°N, 26.1833°E)
Time: 19:48:23
(UTC+00:00)

CZ-2D R/B - Pass Details

Date: 25 August 2019
Orbit: 791 x 845 km, 98.6° (Epoch: 23 September)

Event Time Altitude Azimuth Distance (km) Brightness Sun altitude
Rises 22:09:25 0° 25° (NNE) 3,410 6.4 -20.7°
Reaches altitude 10° 22:13:35 10° 56° (NE) 2,459 5.0 -20.7°
Maximum altitude 22:15:36 12° 78° (ENE) 2,311 4.6 -20.7°
Drops below altitude 10° 22:17:37 10° 100° (E) 2,441 4.5 -20.7°
Enters shadow 22:19:03 - 113° (ESE) 2,686 4.6 -20.7°
